Cape Parry, Northwest Territories

1:59 AM MDT on June 29, 2017 (GMT -0600)
Cape Parry

Weather History for CZCP - July, 2013

Change the Weather History Date:

Wednesday, July 17, 2013

  Actual Average Record
Temperature  
Mean Temperature 40 °F -  
Max Temperature 46 °F 47 °F - ()
Min Temperature 33 °F 37 °F - ()
Degree Days  
Heating Degree Days 26    
Moisture  
Dew Point -    
Average Humidity    
Maximum Humidity    
Minimum Humidity    
Precipitation  
Precipitation 0.00 in 0.03 in - ()
Sea Level Pressure  
Sea Level Pressure 30.07 in    
Wind  
Wind Speed 7 mph ()    
Max Wind Speed 18 mph    
Max Gust Speed -    
Visibility 9.0 miles    
Events      
T = Trace of Precipitation, MM = Missing Value Source: Averaged Metar Reports

Daily Weather History Graph

Daily Weather History Graph

Search for Another Location

Airport or City:

Trip Planner

Search our weather history database for the weather conditions in past years. The results will help you decide how hot, cold, wet, or windy it might be!

Date:

Astronomy

Dec. 31, 1969 Rise Set
Actual Time Sun does not set Sun does not set
Civil Twilight Sun does not set Sun does not set
Nautical Twilight Sun does not set Sun does not set
Astronomical Twilight Sun does not set Sun does not set
Moon 7:50 PM MDT (7/17) 11:43 PM MDT (7/17)
Length of Visible Light 24h 00m
Length of Day
24h 00m
Waxing Gibbous, 68% of the Moon is Illuminated
Jul 17
Waxing Gibbous
Jul 22
Full
Jul 29
Last Quarter
Aug 6
New
Aug 14
First Quarter

Hourly Weather History & Observations

Time (MDT) Temp. Windchill Dew Point Humidity Pressure Visibility Wind Dir Wind Speed Gust Speed Precip Events Conditions
12:00 AM 34 °F - - % 30.11 in 9 mi NW 8.9 mph - -  
12:00 AM 33.8 °F 29.6 °F - N/A% 30.11 in 9.0 mi NW 4.6 mph - N/A   Clear
1:00 AM 35.6 °F 30.7 °F - N/A% 30.10 in 9.0 mi WNW 5.8 mph - N/A   Clear
2:00 AM 33.8 °F 27.7 °F - N/A% 30.10 in 9.0 mi WNW 6.9 mph - N/A   Clear
3:00 AM 33 °F - - % 30.10 in 9 mi West 17.9 mph - -  
3:00 AM 33.8 °F 26.4 °F - N/A% 30.10 in 9.0 mi West 9.2 mph - N/A   Clear
4:00 AM 33.8 °F 25.8 °F - N/A% 30.10 in 9.0 mi West 10.4 mph - N/A   Clear
5:00 AM 33.8 °F 25.8 °F - N/A% 30.09 in 9.0 mi West 10.4 mph - N/A   Clear
6:00 AM 35 °F - - % 30.09 in 9 mi WNW 10.4 mph - -  
6:00 AM 35.6 °F 28.0 °F - N/A% 30.09 in 9.0 mi WNW 10.4 mph - N/A   Clear
7:00 AM 35.6 °F 28.0 °F - N/A% 30.08 in 9.0 mi WNW 10.4 mph - N/A   Clear
8:00 AM 37.4 °F 30.3 °F - N/A% 30.08 in 9.0 mi WNW 10.4 mph - N/A   Clear
9:00 AM 39 °F - - % 30.08 in 9 mi WNW 9.2 mph - -  
9:00 AM 39.2 °F 33.0 °F - N/A% 30.08 in 9.0 mi WNW 9.2 mph - N/A   Clear
10:00 AM 39.2 °F 35.9 °F - N/A% 30.07 in 9.0 mi NW 4.6 mph - N/A   Clear
11:00 AM 42.8 °F - - N/A% 30.06 in 9.0 mi Calm Calm - N/A   Clear
12:00 PM 45 °F - - % 30.06 in 9 mi NNW 2.3 mph - -  
12:00 PM 44.6 °F - - N/A% 30.06 in 9.0 mi NNW 2.3 mph - N/A   Clear
1:00 PM 46.4 °F 45.2 °F - N/A% 30.07 in 9.0 mi North 3.5 mph - N/A   Clear
2:00 PM 46.4 °F 45.2 °F - N/A% 30.06 in 9.0 mi NNE 3.5 mph - N/A   Clear
3:00 PM 45 °F - - % 30.06 in 9 mi NE 5.8 mph - -  
3:00 PM 44.6 °F 41.4 °F - N/A% 30.06 in 9.0 mi NNE 5.8 mph - N/A   Clear
4:00 PM 42.8 °F 38.6 °F - N/A% 30.07 in 9.0 mi NNE 6.9 mph - N/A   Clear
5:00 PM 42.8 °F 37.5 °F - N/A% 30.06 in 9.0 mi NE 9.2 mph - N/A   Clear
6:00 PM 44 °F - - % 30.06 in 9 mi NE 9.2 mph - -  
6:00 PM 44.6 °F 40.2 °F - N/A% 30.06 in 9.0 mi ENE 8.1 mph - N/A   Clear
7:00 PM 44.6 °F 39.7 °F - N/A% 30.05 in 9.0 mi ENE 9.2 mph - N/A   Clear
8:00 PM 44.6 °F 38.8 °F - N/A% 30.04 in 9.0 mi ENE 11.5 mph - N/A   Clear
9:00 PM 44 °F - - % 30.04 in 9 mi ENE 11.5 mph - -  
9:00 PM 44.6 °F 38.8 °F - N/A% 30.04 in 9.0 mi ENE 11.5 mph - N/A   Clear
10:00 PM 42.8 °F 37.5 °F - N/A% 30.06 in 9.0 mi East 9.2 mph - N/A   Clear
11:00 PM 39.2 °F 32.0 °F - N/A% 30.04 in 9.0 mi East 11.5 mph - N/A   Clear